Location: Albany
(35.0000°S, 118.0000°E)
Time: 00:44:20
(UTC-04:00)

Transit 2A - Visible Passes

Search period start: 22 April 2018 00:00
Search period end: 02 May 2018 00:00
Orbit: 598 x 962 km, 66.7° (Epoch: 21 April)

Date Brightness Start Highest point End Pass type
(mag) Time Alt. Az. Time Alt. Az. Time Alt. Az.
22 Apr 6.4 06:10:35 10° N 06:14:36 33° ENE 06:18:57 10° SE visible
22 Apr 7.9 07:54:09 10° WNW 07:57:50 23° SW 08:00:59 13° S visible
22 Apr 8.5 15:04:55 21° ESE 15:04:55 21° ESE 15:08:41 10° E visible
22 Apr 6.3 16:45:31 41° SW 16:47:40 65° WNW 16:53:57 10° NNE visible
23 Apr 7.3 07:19:24 10° WNW 07:23:34 34° SW 07:28:08 10° S visible
23 Apr 6.4 16:14:02 80° NE 16:14:02 80° NE 16:20:01 10° NNE visible
23 Apr 8.0 17:54:38 12° W 17:56:10 13° WNW 17:58:41 10° NW visible
24 Apr 6.5 06:44:58 10° NW 06:49:24 52° WSW 06:54:18 10° SSE visible
24 Apr 7.8 15:42:34 31° NE 15:42:34 31° NE 15:45:51 10° NE visible
24 Apr 7.8 17:23:10 19° WNW 17:23:10 19° WNW 17:26:40 10° NNW visible
25 Apr 5.8 06:10:48 10° NNW 06:15:19 83° WSW 06:20:20 10° SSE visible
25 Apr 8.9 07:59:12 10° SW 07:59:28 10° SW 07:59:44 10° SW visible
25 Apr 9.0 15:11:04 12° NE 15:11:04 12° NE 15:11:27 10° NE visible
25 Apr 8.0 16:51:41 19° NNW 16:51:41 19° NNW 16:53:45 10° NNW visible
26 Apr 8.5 07:22:21 10° W 07:25:03 15° SW 07:27:53 10° SSW visible
26 Apr 8.6 16:20:05 12° N 16:20:05 12° N 16:20:26 10° N visible
27 Apr 8.1 06:47:06 10° W 06:50:41 21° SW 06:54:34 10° S visible
28 Apr 7.5 06:12:18 10° WNW 06:16:26 31° SW 06:20:57 10° S visible
01 May 8.5 06:15:26 10° WSW 06:17:56 14° SW 06:20:34 10° SSW visible
